User: anonymous   Login
Location: Walnut Point State Park
(39.6958°N, 88.0345°W)
Time: 05:29:30
(UTC-06:00)
Language:

Iridium 75 - Orbit

View from above orbital plane
View from above orbital plane
View from above satellite
View from above satellite

Ground track
Ground track

The orbit data is extracted from the following two-line orbital elements,

1 25346U 98032E   14351.30688535  .00000421  00000-0  14330-3 0  1122
2 25346 086.3975 245.6406 0002053 100.4587 038.6435 14.34221238868823
Epoch (UTC): 17 December 2014 07:21:54
Eccentricity: 0.0002053
inclination: 86.3975°
perigee height: 776 km
apogee height: 779 km
right ascension of ascending node: 245.6406°
argument of perigee: 100.4587°
revolutions per day: 14.34221238
mean anomaly at epoch: 38.6435°
orbit number at epoch: 86882

The dashed part of the orbit path shows where the satellite is in the earth's shadow,  

DLR